Lid_Strength_Index
0 0 0 0 0 0 1 1 1 2 3 4 4 4 4 4 5 7 9 9 8 11 13 13 11 12 12 11 12 13 13 13 14 15 15 15 16 16 17 15 16 15 15 14 15 16 17 10 11 13 11 10 10 10
0 0 0 0 0 0 0 0 1 2 3 3 4 4 4 4 5 6 9 10 8 10 13 12 12 11 11 11 11 12 13 13 11 14 15 15 16 16 17 16 16 16 13 13 13 12 10 10 10 9 10 10 11 10
2 0 0 0 0 0 1 1 1 2 2 3 4 3 4 4 5 6 9 10 10 14 14 13 13 11 10 11 10 11 11 10 12 11 13 14 15 14 16 16 16 14 13 14 14 11 11 9 9 9 9 10 10 10
4 2 0 0 1 1 1 1 2 2 2 3 3 3 4 4 5 6 10 10 9 12 14 15 13 13 11 11 10 10 10 10 10 11 12 14 14 14 14 15 15 13 13 14 14 12 12 11 9 8 9 10 10 10
5 3 0 1 1 1 1 1 1 2 2 3 3 3 3 4 5 7 9 10 9 10 14 16 14 13 11 11 10 10 10 10 11 13 13 14 14 15 14 15 15 14 14 14 13 11 10 10 9 9 9 10 10 11
6 4 2 1 1 1 1 1 1 1 3 3 3 3 4 4 7 8 13 9 10 10 14 17 15 15 12 11 11 11 11 11 11 12 13 14 15 15 16 16 13 13 11 11 11 11 11 11 11 11 10 10 12 13
6 5 4 2 1 1 1 1 1 1 2 3 3 3 3 5 6 11 12 9 10 9 14 18 18 15 14 13 13 13 13 14 12 14 15 15 15 15 16 18 13 13 12 12 12 12 13 13 11 13 14 14 17 17
7 6 5 3 2 0 1 1 1 1 2 3 3 4 4 4 7 11 9 8 10 13 14 18 19 18 15 15 15 14 14 13 14 15 16 16 15 16 19 15 14 14 13 13 13 12 13 13 15 16 18 19 20 18
7 7 5 4 3 1 1 1 1 1 3 3 3 4 6 10 13 13 9 10 11 11 15 17 20 20 15 16 15 15 14 16 16 17 16 16 17 20 16 15 14 14 15 14 13 15 18 17 15 17 19 22 20 20
7 7 6 5 4 3 1 1 1 2 3 3 6 12 13 13 9 9 12 13 13 14 15 16 16 19 16 16 17 16 16 16 19 17 16 19 18 15 14 14 13 13 14 15 18 19 21 18 18 17 19 18 17 18
7 7 6 5 4 3 3 1 2 2 4 10 13 14 12 8 12 14 16 15 15 17 16 17 16 19 16 17 18 17 18 18 20 19 19 19 20 16 14 14 14 14 13 15 16 15 14 14 15 16 21 20 22 22
7 7 6 6 4 4 4 2 3 7 10 10 11 11 12 13 14 16 17 17 17 17 18 19 18 16 18 16 18 21 20 21 21 20 21 22 18 15 17 18 15 16 15 17 19 18 19 18 19 19 20 21 23 24
7 7 6 6 4 4 3 2 4 6 7 9 12 14 14 14 18 18 20 18 19 19 19 18 19 19 19 17 20 20 22 23 22 22 22 19 16 17 18 20 21 21 18 19 21 20 21 23 26 24 23 24 23 25
7 7 6 5 4 4 3 4 5 6 10 13 14 17 16 18 17 17 16 16 18 19 18 16 20 18 19 19 21 21 24 23 24 24 23 18 16 15 20 22 22 23 22 20 21 22 23 25 25 25 24 23 25 25
7 7 6 5 4 3 3 5 5 6 12 14 13 17 16 15 18 15 17 18 18 16 15 17 18 18 20 22 21 25 27 25 23 21 18 14 15 19 21 22 22 23 23 21 22 24 24 24 23 23 25 26 25 26
7 7 7 5 4 4 5 5 7 11 12 13 13 15 15 17 20 19 16 18 15 14 14 14 18 19 20 20 24 23 22 22 18 18 15 16 18 20 20 21 21 22 22 21 23 23 23 23 22 21 26 26 27 25
6 10 6 6 4 4 5 8 10 12 12 13 15 16 14 15 17 17 15 16 14 15 16 16 19 18 20 21 22 19 20 16 15 15 16 18 19 19 20 21 22 23 23 23 24 23 22 22 25 25 24 24 25 25
9 7 5 5 4 5 9 11 12 13 16 16 15 15 15 14 16 16 15 14 14 14 15 16 19 21 20 21 20 18 18 17 19 20 21 22 21 19 19 20 22 22 23 24 23 23 25 25 24 22 21 24 25 25
6 5 5 4 5 10 11 12 12 18 18 17 16 15 14 14 13 13 14 13 14 14 16 16 17 18 18 18 19 20 21 23 22 23 24 25 25 22 21 22 23 22 23 23 22 22 22 23 20 20 21 23 20 21
5 5 4 5 6 11 13 14 11 15 16 17 15 15 14 14 14 14 14 15 14 14 15 17 20 26 25 28 28 28 27 26 26 21 21 23 24 22 22 22 21 22 23 23 22 23 22 22 22 21 21 21 20 20
6 5 5 8 14 15 16 15 15 15 16 16 14 14 15 14 15 15 15 14 18 25 24 28 29 29 29 29 30 30 28 28 26 26 23 23 25 22 22 23 22 22 21 22 22 22 22 20 20 21 22 21 20 19
8 6 12 11 15 16 17 17 15 15 15 15 15 14 16 16 16 16 19 25 30 33 33 32 31 31 29 31 31 30 30 29 27 26 25 24 24 23 23 23 22 22 21 21 20 20 20 20 21 21 20 20 21 22
15 18 21 19 17 17 20 17 17 16 17 17 16 18 18 19 21 23 32 33 34 33 33 32 32 31 31 29 29 30 31 28 28 27 26 25 25 24 23 23 21 22 22 22 22 20 21 22 23 21 21 22 23 23
24 30 29 29 24 24 21 23 20 20 20 21 21 23 22 22 23 28 34 35 35 33 33 33 31 29 29 29 30 31 31 29 27 28 28 24 25 26 25 25 26 26 25 24 23 23 23 23 24 23 22 22 22 22
27 37 33 33 31 27 27 27 27 25 26 24 25 25 26 24 28 32 34 37 35 35 35 34 31 30 29 30 29 30 30 30 29 29 30 27 25 26 27 27 28 28 26 24 25 24 24 24 23 23 23 23 22 22
38 37 36 38 35 32 33 32 33 30 27 29 30 29 27 25 27 35 38 38 37 37 37 37 36 33 32 32 31 31 31 29 29 29 30 29 28 26 25 26 27 28 27 26 26 26 25 24 24 24 23 23 23 23
40 41 36 33 35 34 34 34 34 35 36 35 37 32 26 29 36 40 37 37 37 36 36 35 35 34 34 33 31 31 30 29 30 29 28 28 28 28 28 28 29 28 26 26 26 26 26 26 25 24 24 23 23 23
39 39 40 38 38 37 38 39 40 41 40 40 37 39 37 40 41 38 37 35 35 35 34 33 33 33 32 32 31 31 30 29 28 28 27 28 28 29 29 28 28 25 26 26 25 24 24 24 24 24 24 24 23 22
38 39 37 39 38 39 41 40 41 40 39 39 38 40 41 39 38 37 36 35 34 34 35 34 34 31 31 30 31 31 31 31 28 28 28 29 28 29 29 29 28 27 26 26 25 23 22 22 22 21 22 22 21 21
40 38 36 38 40 41 40 39 38 38 36 36 36 37 38 37 36 35 35 36 36 36 35 34 34 33 33 32 32 32 31 31 32 32 31 31 31 30 29 29 28 27 26 26 26 25 23 23 22 22 22 21 21 21
36 34 35 37 39 38 38 37 36 35 35 36 35 37 38 37 36 35 35 35 34 35 35 35 34 34 34 34 34 33 32 31 31 31 31 30 30 29 28 27 26 26 25 26 25 25 25 24 23 23 22 22 22 21
35 37 35 36 37 36 36 36 35 35 35 36 38 35 36 35 37 35 34 34 34 35 35 34 35 34 33 33 32 32 31 31 31 31 30 29 28 27 27 26 25 25 26 26 25 25 24 24 24 23 23 23 23 23
35 35 36 36 35 36 37 38 35 36 36 37 39 38 37 36 37 34 32 33 34 34 34 34 33 33 33 32 32 31 31 31 31 29 28 26 26 25 25 25 26 26 26 26 26 25 26 26 26 26 26 26 26 26